This is the latest recevied weather packets stored in our database for station/object K7YVO. If no packets are shown the sender has not sent any weather packets the latest 10 day(s).
| Time | Temp. | Humidity | Pressure | Rain* | Wind** | Luminosity | Snow |
|---|---|---|---|---|---|---|---|
| 1777317192 | 10.56° C | 73% | 1020.9 hPa | 0 mm | - | 149 W/m² | - |
| 1777316887 | 10.56° C | 73% | 1020.9 hPa | 0 mm | - | 160 W/m² | - |
| 1777316584 | 10.56° C | 73% | 1021 hPa | 0 mm | - | 152 W/m² | - |
| 1777316280 | 10.56° C | 73% | 1021.1 hPa | 0 mm | - | 155 W/m² | - |
| 1777315977 | 10° C | 75% | 1021 hPa | 0 mm | - | 130 W/m² | - |
| 1777315676 | 10° C | 74% | 1021.1 hPa | 0 mm | - | 139 W/m² | - |
| 1777315374 | 10° C | 76% | 1021 hPa | 0 mm | - | 147 W/m² | - |
| 1777315072 | 9.44° C | 76% | 1020.9 hPa | 0 mm | - | 122 W/m² | - |
| 1777314771 | 9.44° C | 77% | 1021 hPa | 0 mm | - | 153 W/m² | - |
| 1777314468 | 10° C | 76% | 1021 hPa | 0 mm | - | 128 W/m² | - |
| 1777314165 | 10.56° C | 74% | 1020.8 hPa | 0 mm | - | 171 W/m² | - |
| 1777313864 | 10.56° C | 75% | 1020.8 hPa | 0 mm | - | 217 W/m² | - |
| 1777313560 | 10° C | 76% | 1020.5 hPa | 0 mm | - | 218 W/m² | - |
| 1777313258 | 10° C | 77% | 1020.6 hPa | 0 mm | - | 238 W/m² | - |
| 1777312954 | 10° C | 77% | 1020.8 hPa | 0 mm | - | 243 W/m² | - |
| 1777312650 | 10° C | 80% | 1020.6 hPa | 0 mm | - | 314 W/m² | - |
| 1777312348 | 9.44° C | 81% | 1020.7 hPa | 0 mm | - | 247 W/m² | - |
| 1777312045 | 9.44° C | 82% | 1020.7 hPa | 0 mm | - | 209 W/m² | - |
| 1777311741 | 8.89° C | 83% | 1020.6 hPa | 0 mm | - | 172 W/m² | - |
| 1777311439 | 8.89° C | 84% | 1020.7 hPa | 0 mm | - | 162 W/m² | - |
| 1777311136 | 9.44° C | 85% | 1020.8 hPa | 0 mm | - | 150 W/m² | - |
| 1777310834 | 8.89° C | 86% | 1020.8 hPa | 0 mm | - | 171 W/m² | - |
| 1777310532 | 8.33° C | 86% | 1020.7 hPa | 0 mm | - | 99 W/m² | - |
| 1777310228 | 8.89° C | 84% | 1020.6 hPa | 0 mm | - | 101 W/m² | - |
| 1777309926 | 8.89° C | 84% | 1020.7 hPa | 0 mm | - | 98 W/m² | - |
* Rain latest hour (hover to see other rain measurements)
** Current wind speed in m/s (hover to see current wind gust speed)